Flag for Austria Weather past 2 weeks in Linz, Upper Austria, Austria

Now
84 °F

Passing clouds.


Feels Like: 85 °F
Forecast: 66 / 89 °F
Wind: 3 mph from North

Location: Linz / Hoersching-Flughafen

Current Time: Aug 4, 2015 at 1:44:01 PM

Latest Report: Aug 4, 2015 at 12:50 PM


Visibility: N/A

Pressure: 29.95 "Hg

Humidity: 48%

Dew point: 63 °F

Location of LinzLocation

Historic Weather in Linz — Graph

°F

Linz temperature yesterday

Maximum temperature yesterday: 82 °F (at 3:50 PM)
Minimum temperature yesterday: 59 °F (at 12:20 AM)
Average temperature yesterday: 69 °F

Past Weeks' High & Low Weather Summary

 TemperatureHumidityPressure
High97 °F (Jul 22, 2:50 PM)100% (Jul 27, 6:20 AM)30.15 "Hg (Jul 27, 6:20 AM)
Low55 °F (Jul 26, 5:20 AM)22% (Jul 22, 2:50 PM)29.68 "Hg (Jul 25, 2:50 AM)
Average71 °F63%29.95 "Hg
* Reported Jul 20 12:20 PM — Aug 4 12:20 PM, Linz, Weather by CustomWeather, © 2015

Note: Actual official high and low records may vary slightly from our data, if they occured in-between our weather recording intervals... More about our weather records

Advertising

Linz weather history for previous 24 hours

 ConditionsComfort  
Time TempWeatherWind HumidityBarometerVisibility
12:20 PM
Tue, Aug 4
82 °FPassing clouds.3 mph48%29.95 "HgN/A
11:50 AM81 °FPassing clouds.5 mph54%29.98 "HgN/A
11:20 AM81 °FPassing clouds.5 mph54%29.98 "HgN/A
10:50 AM79 °FPassing clouds.7 mph58%29.98 "HgN/A
10:20 AM75 °FPassing clouds.5 mph65%29.98 "HgN/A
9:50 AM75 °FPassing clouds.3 mph65%30.01 "HgN/A
9:20 AM73 °FPassing clouds.6 mph69%29.98 "HgN/A
8:50 AM72 °FPassing clouds.5 mph73%30.01 "HgN/A
8:20 AM68 °FPassing clouds.3 mph78%30.01 "HgN/A
7:50 AM66 °FSunny.No wind83%30.01 "Hg10 mi
7:20 AM63 °FSunny.No wind88%30.01 "Hg10 mi
6:50 AM59 °FSunny.2 mph94%30.01 "Hg10 mi
5:50 AM59 °FClear.2 mph94%30.01 "Hg10 mi
5:20 AM59 °FClear.1 mph94%30.01 "Hg10 mi
4:50 AM59 °FClear.1 mph94%30.01 "Hg10 mi
4:20 AM61 °FClear.1 mph88%30.01 "Hg10 mi
3:50 AM61 °FClear.2 mph88%30.01 "Hg10 mi
3:20 AM61 °FCool.2 mph88%30.01 "HgN/A
2:50 AM63 °FMild.3 mph88%30.01 "HgN/A
2:20 AM63 °FMild.1 mph88%30.04 "HgN/A
1:50 AM63 °FMild.1 mph88%30.04 "HgN/A
1:20 AM64 °FMild.1 mph83%30.04 "HgN/A
12:50 AM64 °FMild.3 mph83%30.04 "HgN/A
12:20 AM66 °FMild.3 mph78%30.04 "HgN/A
11:50 PM
Mon, Aug 3
66 °FMild.2 mph78%30.07 "HgN/A
11:20 PM68 °FMild.1 mph73%30.04 "HgN/A
10:50 PM70 °FClear.1 mph69%30.04 "Hg10 mi
10:20 PM70 °FClear.1 mph69%30.07 "Hg10 mi
9:50 PM72 °FClear.2 mph65%30.07 "Hg10 mi
9:20 PM73 °FSunny.2 mph61%30.07 "Hg10 mi
8:50 PM75 °FSunny.1 mph50%30.04 "Hg10 mi
8:20 PM77 °FPassing clouds.2 mph51%30.04 "HgN/A
7:50 PM81 °FPassing clouds.1 mph42%30.04 "HgN/A
7:20 PM82 °FPassing clouds.2 mph37%30.04 "HgN/A
6:50 PM82 °FPassing clouds.2 mph37%30.04 "HgN/A
6:20 PM82 °FPassing clouds.6 mph40%30.07 "HgN/A
5:50 PM82 °FPassing clouds.5 mph37%30.07 "HgN/A
5:20 PM82 °FPassing clouds.6 mph37%30.07 "HgN/A
4:50 PM82 °FPassing clouds.6 mph40%30.07 "HgN/A
4:20 PM81 °FPassing clouds.5 mph37%30.09 "HgN/A
3:50 PM82 °FPassing clouds.3 mph37%30.09 "HgN/A
3:20 PM81 °FPassing clouds.2 mph42%30.09 "HgN/A
2:50 PM79 °FPassing clouds.3 mph45%30.09 "HgN/A
2:20 PM79 °FPassing clouds.2 mph48%30.09 "HgN/A
1:50 PM77 °FPassing clouds.5 mph47%30.09 "HgN/A
1:20 PM77 °FPassing clouds.3 mph51%30.12 "HgN/A
Weather by CustomWeather, © 2015

See weather overviewHow to use our weather pages